Regional Weather Roundup
Issued by NWS

Home | Current Version | Previous Version | Text Only | Print | Product List | Glossary Off
Versions: 1 2 3 4 5 6 7 8 9 10 11 12 13 14 15 16 17 18 19 20 21 22 23 24 25 26 27 28 29 30 31 32 33 34 35 36 37 38 39 40 41 42 43 44 45 46 47 48 49 50

000
ASUS43 KDMX 240501
RWRIA

WEATHER ROUNDUP FOR IOWA
NATIONAL WEATHER SERVICE DES MOINES IA
1100 PM CST MON JAN 23 2017

NOTE: "FAIR" INDICATES FEW OR NO CLOUDS BELOW 12,000 FEET WITH NO
SIGNIFICANT WEATHER AND/OR OBSTRUCTIONS TO VISIBILITY.

* - THESE STATIONS ARE NOT NWS STATIONS...THUS NOT UNDER NWS
QUALITY CONTROL.  THEY ALSO DO NOT REPORT WEATHER SUCH
AS PRECIPITATION OR FOG.

IAZ001>003-012>014-020>022-031>034-043>046-240600-
   NORTHWEST IOWA

CITY           SKY/WX    TMP DP  RH WIND       PRES   REMARKS
CARROLL *      CLOUDY    32  32 100 SE3       29.86R
CHEROKEE *     CLOUDY    32  31  96 SE3       29.85S
DENISON *      CLOUDY    32  28  86 SE5       29.83S WCI  27
LE MARS *      CLOUDY    32  30  93 SE5       29.85S WCI  27
ORANGE CITY *  CLOUDY    30  30 100 SE6       29.83F WCI  24
SHELDON *      CLOUDY    32  32 100 SE5       29.82F WCI  27
SIOUX CITY     CLOUDY    33  30  88 E6        29.84R WCI  28
SPENCER        CLOUDY    32  30  92 S3        29.85S
STORM LAKE *   CLOUDY    32  30  93 SE3       29.84S
$$

IAZ055>058-069>071-079>083-090>094-240600-
   SOUTHWEST IOWA

CITY           SKY/WX    TMP DP  RH WIND       PRES   REMARKS
ATLANTIC *     CLOUDY    32  30  93 E5        29.85S WCI  27
AUDUBON *      CLOUDY    30  28  93 SE5       29.86R WCI  25
CLARINDA *     CLOUDY    32  30  93 E3        29.88S
COUNCIL BLFS * CLOUDY    30  30 100 SE10      29.84R WCI  21
CRESTON *      CLOUDY    30  30 100 SE7       29.86S WCI  23
HARLAN  *      CLOUDY    32  32 100 E8        29.88S WCI  25
LAMONI         CLOUDY    31  28  89 SE6       29.85R WCI  25
RED OAK *      CLOUDY    32  30  93 SE7       29.86S WCI  26
SHENANDOAH *   CLEAR     30  28  93 E8        29.86S WCI  23
$$

IAZ047>049-059>061-072>074-084-240600-
   CENTRAL IOWA

CITY           SKY/WX    TMP DP  RH WIND       PRES   REMARKS
AMES           CLOUDY    32  32 100 CALM      29.87S
ANKENY *       CLOUDY    34  30  86 CALM      29.89R
BOONE *        CLOUDY    32  32 100 CALM      29.85S
CHARITON *     CLOUDY    32  28  86 CALM      29.87F
DES MOINES     CLOUDY    33  28  81 CALM      29.88S
GRINNELL*      CLOUDY    32  29  90 CALM      29.87S
KNOXVILLE *    CLOUDY    32  28  86 CALM      29.86F
MARSHALLTOWN   CLOUDY    32  31  96 CALM      29.86R
NEWTON *       CLOUDY    32  30  93 CALM      29.87S
PELLA *        CLOUDY    32  29  89 CALM      29.89S
PERRY *        CLOUDY    33  31  93 CALM      29.87S
$$

IAZ004>006-015-016-023>025-035-036-240600-
   NORTH CENTRAL IOWA

CITY           SKY/WX    TMP DP  RH WIND       PRES   REMARKS
ALGONA *       CLOUDY    32  32 100 CALM      29.86R
CLARION *      CLOUDY    32  32 100 CALM      29.87R
ESTHERVILLE    CLOUDY    31  30  96 CALM      29.85R
FORT DODGE *   CLOUDY    30  28  93 CALM      29.87S
MASON CITY     CLOUDY    31  27  85 NW3       29.87R
FOREST CITY *  CLOUDY    32  30  93 CALM      29.86R
WEBSTER CITY * CLOUDY    32 N/A N/A CALM      29.85S
IOWA FALLS *   CLOUDY    33  30  90 CALM      29.88R
$$

IAZ007>011-017>019-026>030-037>042-050>054-066-240600-
   NORTHEAST IOWA

CITY           SKY/WX    TMP DP  RH WIND       PRES   REMARKS
CEDAR RAPIDS   CLOUDY    32  30  92 CALM      29.86R
CHARLES CITY * CLOUDY    32  32 100 CALM      29.85S
CLINTON *      CLOUDY    33  32  96 W7        29.86R WCI  27
DECORAH *      CLOUDY    32  30  93 CALM      29.83S
DUBUQUE        CLOUDY    32  31  96 SW3       29.85R
MONTICELLO *   CLOUDY    34  30  86 CALM      29.86R
OELWEIN *      CLOUDY    34  30  86 CALM      29.86R
WATERLOO       CLOUDY    33  27  78 CALM      29.87R
$$

IAZ064-065-067-068-078-240600-
   EAST CENTRAL IOWA

CITY           SKY/WX    TMP DP  RH WIND       PRES   REMARKS
DAVENPORT      CLOUDY    33  31  92 W6        29.86R WCI  28
IOWA CITY      CLOUDY    33  30  88 CALM      29.89R
MUSCATINE *    CLOUDY    34  30  86 CALM      29.88S
QUAD CITIES    CLOUDY    35  31  85 W6        29.86S WCI  30
$$

IAZ062-063-075>077-085>089-095>099-240600-
   SOUTHEAST IOWA

CITY           SKY/WX    TMP DP  RH WIND       PRES   REMARKS
BURLINGTON     CLOUDY    33  30  88 W3        29.88R
FAIRFIELD *    CLOUDY    32  28  86 CALM      29.88R
FORT MADISON * CLOUDY    34  30  86 CALM      29.89R
KEOKUK *       CLOUDY    34 N/A N/A CALM      29.88R
OSKALOOSA *    CLOUDY    32  29  90 CALM      29.88R
CENTERVILLE *  CLOUDY    32  32 100 CALM      29.89R
OTTUMWA        CLOUDY    32  28  85 CALM      29.87R
WASHINGTON *   CLOUDY    32  30  93 NW5       29.89R WCI  27
$$

ABBREVIATIONS USED IN REMARKS
   TC - TEMPERATURES IN CELSIUS
  WCI - WIND CHILL INDEX
   HX - HEAT INDEX
  VSB - VISIBILITY
$$




USA.gov is the U.S. government's official web portal to all federal, state and local government web resources and services.